Lexington Weather

Lexington, Massachusetts, USA

46°F
10/22/2019 1:58am 
  • Lexington Conditions: Few Clouds
  • Temperature: 46.0°F / 7.8°CWarmer 0.5°F than last hour.
  • Dew Point: 44.4°FIncreased 1.4°Fsince last hour.
  • Relative Humidity: 94%Increased 3.0% since last hour.
  • Wind: Calm, 10-min avg: Calm, gust: None
  • Barometer: 30.12 in Steady
  • Visibility: 10 miles
  • Rain Today: 0.00 in
  •   

Regional Weather Roundup
for Boston, MA

        
000
ASUS41 KBOX 220210
RWRBOX

REGIONAL WEATHER ROUNDUP
NATIONAL WEATHER SERVICE BOSTON/NORTON MA
1000 PM EDT MON OCT 21 2019

NOTE:  "FAIR" INDICATES FEW OR NO CLOUDS BELOW 12,000 FEET WITH NO 
SIGNIFICANT WEATHER AND/OR OBSTRUCTIONS TO VISIBILITY.

MAZALL-220300-
EASTERN MASSACHUSETTS
  
CITY           SKY/WX    TMP DP  RH WIND       PRES   REMARKS
BOSTON         FAIR      53  47  79 N5        30.18R                  
BEVERLY        FAIR      45  43  93 CALM      30.17R                  
LAWRENCE       FAIR      47  44  90 NE3       30.19R                  
BEDFORD        FAIR      46  40  79 CALM      30.17R                  
BLUE HILL      NOT AVBL                                               
NORWOOD        FAIR      43  38  82 CALM      30.17S                  
MARSHFIELD     FAIR      55  50  82 VRB5      30.16R                  
PLYMOUTH       FAIR      50  48  93 N3        30.16R                  
TAUNTON        FOG       41  38  89 CALM      30.15F VSB 3/4          
NEW BEDFORD    FAIR      48  45  89 N3        30.14S                  
$$

MAZALL-220300-
CAPE COD AND THE ISLANDS
  
CITY           SKY/WX    TMP DP  RH WIND       PRES   REMARKS
FALMOUTH       CLEAR     52  48  87 NE7       30.14R                  
HYANNIS        FAIR      52  48  86 N6        30.13R                  
CHATHAM        NOT AVBL                                               
PROVINCETOWN   FAIR      54  49  83 NE8         N/A                   
NANTUCKET      MOCLDY    54  52  93 NE15      30.12R                  
MARTHAS VNYRD  FAIR      52  49  89 N10       30.13R                  
$$
 
MAZALL-220300-
CENTRAL AND WESTERN MASSACHUSETTS
  
CITY           SKY/WX    TMP DP  RH WIND       PRES   REMARKS
WORCESTER      FAIR      50  46  86 NE6       30.18R                  
FITCHBURG      FAIR      46  43  89 NW3       30.19R                  
ORANGE         FAIR      44  41  89 CALM      30.17S FOG              
SPRINGFIELD    CLEAR     46  44  96 CALM      30.13S                  
WESTFIELD      FAIR      47  44  90 N3        30.14S                  
NORTH ADAMS    FAIR      40  38  93 CALM      30.13F                  
PITTSFIELD     FAIR      46  43  89 CALM      30.13S                  
$$
 
RIZALL-220300-
RHODE ISLAND
  
CITY           SKY/WX    TMP DP  RH WIND       PRES   REMARKS
PROVIDENCE     FAIR      49  46  90 N6        30.17R                  
NEWPORT        FAIR      52  47  83 NE10      30.14R                  
BLOCK ISLAND   FAIR      54  48  80 NE14      30.14R                  
SMITHFIELD     FAIR     N/A N/A N/A NE5       30.17R                  
WESTERLY       FAIR      53  46  77 NE5       30.15R                  
$$
 
CTZALL-220300-
CONNECTICUT
  
CITY           SKY/WX    TMP DP  RH WIND       PRES   REMARKS
BRADLEY INTL   FAIR      50  46  86 NE5       30.13S                  
HARTFORD       FAIR      50  47  89 CALM      30.14R                  
BRIDGEPORT     FAIR      54  50  86 N5        30.13R                  
DANBURY        FAIR      46  44  93 SW3       30.14R                  
GROTON         FAIR      50  42  74 N6        30.13R                  
NEW HAVEN      FAIR      55  48  77 E7        30.13F                  
CHESTER        FAIR      52  45  76 VRB3      30.15S                  
MERIDEN        FAIR      48  46  93 CALM      30.14S                  
WILLIMANTIC    FAIR      47  45  93 NE3       30.17R                  
OXFORD         FAIR      52  47  83 E3        30.14S                  
$$

MEZ002-015-021-024-NHZ003-005-008-011-012-014-VTZ005-008-220300-
NORTHERN NEW ENGLAND
  
CITY           SKY/WX    TMP DP  RH WIND       PRES   REMARKS
PORTLAND ME    FAIR      44  41  89 W6        30.20R                  
BANGOR ME      FAIR      42  40  92 CALM      30.19S                  
CONCORD NH     FAIR      43  41  93 NE5       30.18R                  
MANCHESTER NH  FAIR      49  44  83 CALM      30.17R                  
NASHUA NH      FAIR      45  45 100 CALM      30.19R                  
PORTSMOUTH NH  CLEAR     46  46  97 CALM      30.18                   
JAFFREY NH     FAIR      43  40  89 CALM      30.18R                  
KEENE NH       FAIR      43  43 100 CALM      30.18R FOG              
BURLINGTON VT  FAIR      43  40  89 CALM      30.13S                  
MT. WASHINGTON PTCLDY    45 -11   9 E6          N/A                   
$$

NYZ052-076-220300-
EASTERN NEW YORK
  
CITY           SKY/WX    TMP DP  RH WIND       PRES   REMARKS
ALBANY         FAIR      46  43  89 CALM      30.15R                  
NEW YORK CITY  FAIR      60  51  72 CALM      30.11S                  
$$
 
ANZALL-220300-
MARINE OBSERVATIONS
  
STATION/POSITION TIME  TEMP    WIND        PRES    VSBY  WAVE
                       AIR SEA DIR/SP/G                  HT/PER
                 (UTC) (F)     (DEG/KT/KT) (MB)    (MI)  (FT/S)
BOSTON BUOY      0150   55 57   50/  8/ 10 1021.0R         3/ 6
BUZZARDS BAY     0100   54      30/ 18/ 19 1020.3F
NANTUCKET SOUND  0140      56              1020.1
MASS BAY-STELLWA 0104      56                N/A
ISLE OF SHOALS   0100   54      40/  5/  5 1021.0F
S OF BLOCK IS    0200      60                N/A           7/10
$$

......................KEY.........................
  SKY/WX - SKY CONDITION/PRESENT WEATHER
  TMP    - TEMPERATURE IN FAHRENHEIT
  DWPT   - DEWPOINT IN FAHRENHEIT
  RH     - RELATIVE HUMIDITY IN PERCENT
  WIND   - DIRECTION AND SPEED IN MPH
  PRES   - MEAN SEA LEVEL PRESSURE IN INCHES OF HG
  WCI    - WIND CHILL INDEX
  VSB    - VISIBILITY IN MILES
  HX     - HEAT INDEX
  TC     - TEMPERATURE IN CELSIUS
  VRB    - VARIABLE WIND DIRECTION
  N/A    - NOT AVAILABLE
  
      

Other recent Regional Weather Roundups

Tue Oct 22, 1:10am

Tue Oct 22, 1:00am

Tue Oct 22, 12:10am

Tue Oct 22, 12:00am

Mon Oct 21, 11:10pm

Mon Oct 21, 11:00pm

Mon Oct 21, 10:01pm

Mon Oct 21, 9:10pm

Mon Oct 21, 9:00pm

Mon Oct 21, 8:10pm

Mon Oct 21, 8:00pm

Mon Oct 21, 7:10pm

Mon Oct 21, 7:01pm

Mon Oct 21, 6:10pm

Mon Oct 21, 6:01pm

Mon Oct 21, 5:10pm

Mon Oct 21, 5:01pm

Mon Oct 21, 4:10pm

Mon Oct 21, 4:00pm

Mon Oct 21, 3:10pm

Mon Oct 21, 3:01pm

Mon Oct 21, 2:10pm

Mon Oct 21, 2:00pm

Mon Oct 21, 1:10pm

Mon Oct 21, 1:01pm

Mon Oct 21, 12:10pm

Mon Oct 21, 12:00pm

Mon Oct 21, 11:10am

Mon Oct 21, 11:00am

Mon Oct 21, 10:10am

Mon Oct 21, 10:00am

Mon Oct 21, 9:10am

Mon Oct 21, 9:00am

Mon Oct 21, 7:10am

Mon Oct 21, 7:00am

Mon Oct 21, 6:10am

Mon Oct 21, 6:00am

Mon Oct 21, 5:10am

Mon Oct 21, 5:00am

Mon Oct 21, 4:10am

Mon Oct 21, 4:00am

Mon Oct 21, 3:10am

Mon Oct 21, 3:00am

Mon Oct 21, 2:10am

Mon Oct 21, 2:01am

Mon Oct 21, 1:10am

Mon Oct 21, 1:00am

Mon Oct 21, 12:10am

Mon Oct 21, 12:00am

Sun Oct 20, 11:10pm

Sun Oct 20, 11:00pm

Sun Oct 20, 10:10pm

Sun Oct 20, 10:00pm

Sun Oct 20, 9:10pm

Sun Oct 20, 9:01pm

Sun Oct 20, 8:10pm

Sun Oct 20, 8:00pm

Sun Oct 20, 7:10pm

Sun Oct 20, 7:01pm

Sun Oct 20, 6:10pm

Sun Oct 20, 6:00pm

Sun Oct 20, 5:10pm

Sun Oct 20, 5:00pm

Sun Oct 20, 4:10pm

Sun Oct 20, 4:00pm

Sun Oct 20, 3:10pm

Sun Oct 20, 3:00pm

Sun Oct 20, 2:10pm

Sun Oct 20, 2:01pm

Sun Oct 20, 1:10pm

Sun Oct 20, 1:01pm

Sun Oct 20, 12:10pm

Sun Oct 20, 12:00pm

Sun Oct 20, 11:10am

Sun Oct 20, 11:00am

Sun Oct 20, 10:10am

Sun Oct 20, 10:00am

Sun Oct 20, 9:10am

Sun Oct 20, 9:00am

Sun Oct 20, 8:10am

Sun Oct 20, 8:00am

Sun Oct 20, 7:10am

Sun Oct 20, 7:00am

Sun Oct 20, 6:10am

Sun Oct 20, 6:00am

Sun Oct 20, 5:10am

Sun Oct 20, 5:00am

Sun Oct 20, 4:10am

Sun Oct 20, 4:00am

Sun Oct 20, 3:10am

Sun Oct 20, 3:00am

Sun Oct 20, 2:10am

Sun Oct 20, 2:00am

Sun Oct 20, 1:10am

Sun Oct 20, 1:00am

Sun Oct 20, 12:10am

Sun Oct 20, 12:00am

Sat Oct 19, 11:10pm

Sat Oct 19, 11:00pm

Sat Oct 19, 10:10pm

Sat Oct 19, 10:00pm

Sat Oct 19, 9:10pm

Sat Oct 19, 9:00pm

Sat Oct 19, 8:10pm

Sat Oct 19, 8:00pm

Sat Oct 19, 7:10pm

Sat Oct 19, 7:00pm

Sat Oct 19, 6:10pm

Sat Oct 19, 6:00pm

Sat Oct 19, 5:10pm

Sat Oct 19, 5:00pm

Sat Oct 19, 4:10pm

Sat Oct 19, 4:00pm

Sat Oct 19, 3:10pm

Sat Oct 19, 3:01pm

Sat Oct 19, 2:10pm

Sat Oct 19, 2:00pm

Sat Oct 19, 1:10pm

Sat Oct 19, 1:01pm

Sat Oct 19, 12:10pm

Sat Oct 19, 12:00pm

Sat Oct 19, 11:10am

Sat Oct 19, 11:01am

Sat Oct 19, 10:10am

Sat Oct 19, 10:00am

Sat Oct 19, 9:10am

Sat Oct 19, 9:00am

Sat Oct 19, 8:10am

Sat Oct 19, 8:00am

Sat Oct 19, 7:10am

Sat Oct 19, 7:00am

Sat Oct 19, 6:10am

Sat Oct 19, 6:00am

Sat Oct 19, 5:10am

Sat Oct 19, 5:00am

Sat Oct 19, 4:10am

Sat Oct 19, 4:00am

Sat Oct 19, 3:10am

Sat Oct 19, 3:00am

Sat Oct 19, 2:10am

Sat Oct 19, 2:00am

Meta data:

ID: e315373d-c50c-409c-a83d-dae939c63404
Link: https://api.weather.gov/products/e315373d-c50c-409c-a83d-dae939c63404